Location: Caltech
(34.1382°N, 118.1253°W)
Time: 23:58:31
(UTC-08:00)

JAS-2 - Visible Passes

Search period start: 19 December 2014 00:00
Search period end: 29 December 2014 00:00
Orbit: 800 x 1322 km, 98.5° (Epoch: 19 December)

Date Brightness Start Highest point End Pass type
(mag) Time Alt. Az. Time Alt. Az. Time Alt. Az.
19 Dec 9.0 05:10:22 10° N 05:16:00 81° WNW 05:21:11 10° SSW visible
19 Dec 11.4 17:00:53 10° S 17:08:12 44° W 17:15:05 10° NNW visible
20 Dec 11.0 04:16:01 10° NE 04:20:45 29° E 04:25:14 10° SSE visible
20 Dec 10.0 06:01:11 10° NNW 06:05:45 27° WNW 06:10:04 10° WSW visible
20 Dec 12.6 17:53:49 10° SW 17:58:37 18° W 18:03:15 10° NW visible
21 Dec 9.0 05:05:29 10° NNE 05:11:01 88° WNW 05:16:11 10° SSW visible
22 Dec 11.1 04:11:14 10° NE 04:15:45 27° E 04:20:03 10° SSE visible
22 Dec 9.9 05:56:11 10° N 06:00:49 29° WNW 06:05:14 10° SW visible
22 Dec 12.6 17:48:45 10° SW 17:53:46 19° W 17:58:35 10° NW visible
23 Dec 9.1 05:00:34 10° NNE 05:06:02 85° ESE 05:11:12 10° SSW visible
24 Dec 11.2 04:06:28 10° NE 04:10:44 24° E 04:14:52 10° SSE visible
24 Dec 9.8 05:51:11 10° N 05:55:53 31° WNW 06:00:23 10° SW visible
24 Dec 12.5 17:43:42 10° SW 17:48:54 20° W 17:53:52 10° NW visible
25 Dec 9.2 04:55:40 10° NNE 05:01:03 78° ESE 05:06:12 10° S visible
26 Dec 11.4 04:01:42 10° NE 04:05:44 22° E 04:09:39 10° SE visible
26 Dec 9.7 05:46:11 10° N 05:50:56 34° WNW 05:55:32 10° SW visible
26 Dec 12.4 17:38:40 10° SW 17:44:02 21° W 17:49:07 10° NW visible
27 Dec 9.3 04:50:45 10° NNE 04:56:03 71° ESE 05:01:11 10° S visible
28 Dec 11.5 03:56:57 10° NE 04:00:43 20° E 04:04:26 10° SE visible
28 Dec 9.6 05:41:10 10° N 05:45:59 36° WNW 05:50:41 10° SW visible
28 Dec 12.4 17:33:40 10° SW 17:39:10 22° W 17:44:20 10° NW visible
